Clinton, OK

2:41 AM CDT on April 27, 2017 (GMT -0500)
Clinton Municipal

Weather History for KCLK - October, 2012

Change the Weather History Date:

Wednesday, October 17, 2012

  Actual Average (KCSM) Record (KCSM)
Temperature  
Mean Temperature 62 °F -  
Max Temperature 75 °F 70 °F 95 °F (2016)
Min Temperature 50 °F 48 °F 39 °F (2002)
Degree Days  
Heating Degree Days 2    
Growing Degree Days 12 (Base 50)    
Moisture  
Dew Point 34 °F    
Average Humidity 38    
Maximum Humidity 82    
Minimum Humidity 12    
Precipitation  
Precipitation 0.00 in - - ()
Sea Level Pressure  
Sea Level Pressure 29.64 in    
Wind  
Wind Speed 14 mph (NNW)    
Max Wind Speed 29 mph    
Max Gust Speed 37 mph    
Visibility 10 miles    
Events      
Averages and records for this station are not official NWS values.
T = Trace of Precipitation, MM = Missing Value Source: NWS Daily Summary

Daily Weather History Graph

Daily Weather History Graph

Search for Another Location

Airport or City:

Trip Planner

Search our weather history database for the weather conditions in past years. The results will help you decide how hot, cold, wet, or windy it might be!

Date:

Astronomy

Oct. 17, 2012 Rise Set
Actual Time 7:44 AM CDT 6:57 PM CDT
Civil Twilight 7:18 AM CDT 7:22 PM CDT
Nautical Twilight 6:48 AM CDT 7:52 PM CDT
Astronomical Twilight 6:19 AM CDT 8:21 PM CDT
Moon 10:14 AM CDT (10/17) 8:41 PM CDT (10/17)
Length of Visible Light 12h 04m
Length of Day
11h 12m
Waxing Crescent, 7% of the Moon is Illuminated
Oct 17
Waxing Crescent
Oct 21
First Quarter
Oct 29
Full
Nov 6
Last Quarter
Nov 13
New

Hourly Weather History & Observations

Time (CDT) Temp. Dew Point Humidity Pressure Visibility Wind Dir Wind Speed Gust Speed Precip Events Conditions
12:15 AM 62.6 °F 53.6 °F 72% 29.52 in 10.0 mi SSE 10.4 mph - N/A   Clear
12:35 AM 62.6 °F 53.6 °F 72% 29.51 in 10.0 mi SSE 11.5 mph - N/A   Clear
12:55 AM 62.6 °F 53.6 °F 72% 29.51 in 10.0 mi SSE 11.5 mph - N/A   Clear
1:15 AM 62.6 °F 53.6 °F 72% 29.50 in 10.0 mi SSE 9.2 mph - N/A   Clear
1:55 AM 60.8 °F 53.6 °F 77% 29.49 in 10.0 mi SSE 11.5 mph - N/A   Clear
2:15 AM 62.6 °F 53.6 °F 72% 29.48 in 10.0 mi SSE 11.5 mph - N/A   Clear
2:35 AM 62.6 °F 53.6 °F 72% 29.47 in 10.0 mi SSE 13.8 mph - N/A   Clear
2:55 AM 62.6 °F 53.6 °F 72% 29.46 in 10.0 mi SSE 13.8 mph - N/A   Clear
3:15 AM 60.8 °F 53.6 °F 77% 29.45 in 10.0 mi SSE 13.8 mph - N/A   Clear
3:35 AM 60.8 °F 55.4 °F 82% 29.43 in 10.0 mi SSE 12.7 mph - N/A   Clear
3:55 AM 60.8 °F 53.6 °F 77% 29.43 in 10.0 mi SSE 12.7 mph - N/A   Clear
4:15 AM 60.8 °F 53.6 °F 77% 29.42 in 10.0 mi South 9.2 mph - N/A   Clear
4:35 AM 60.8 °F 53.6 °F 77% 29.42 in 10.0 mi South 6.9 mph - N/A   Clear
4:55 AM 60.8 °F 51.8 °F 72% 29.42 in 10.0 mi South 9.2 mph - N/A   Clear
5:15 AM 60.8 °F 50.0 °F 68% 29.42 in 10.0 mi South 5.8 mph - N/A   Clear
5:35 AM 59.0 °F 50.0 °F 72% 29.43 in 10.0 mi SSW 4.6 mph - N/A   Clear
5:55 AM 60.8 °F 46.4 °F 59% 29.43 in 10.0 mi SW 10.4 mph - N/A   Clear
6:15 AM 62.6 °F 41.0 °F 45% 29.44 in 10.0 mi WSW 13.8 mph 18.4 mph N/A   Clear
6:35 AM 60.8 °F 37.4 °F 42% 29.44 in 10.0 mi West 10.4 mph - N/A   Clear
6:55 AM 59.0 °F 37.4 °F 45% 29.44 in 10.0 mi West 6.9 mph - N/A   Clear
7:15 AM 59.0 °F 37.4 °F 45% 29.45 in 10.0 mi West 9.2 mph - N/A   Clear
7:35 AM 57.2 °F 37.4 °F 48% 29.46 in 10.0 mi West 6.9 mph - N/A   Clear
7:55 AM 57.2 °F 41.0 °F 55% 29.49 in 10.0 mi WNW 11.5 mph - N/A   Clear
8:15 AM 60.8 °F 42.8 °F 52% 29.49 in 10.0 mi NNW 19.6 mph 25.3 mph N/A   Clear
8:35 AM 62.6 °F 44.6 °F 52% 29.54 in 10.0 mi NNW 21.9 mph 28.8 mph N/A   Clear
8:55 AM 64.4 °F 44.6 °F 49% 29.54 in 10.0 mi NNW 17.3 mph 31.1 mph N/A   Clear
9:15 AM 66.2 °F 42.8 °F 43% 29.56 in 10.0 mi North 25.3 mph 34.5 mph N/A   Clear
9:35 AM 68.0 °F 41.0 °F 37% 29.57 in 10.0 mi North 24.2 mph 34.5 mph N/A   Clear
9:55 AM 68.0 °F 39.2 °F 35% 29.57 in 10.0 mi North 25.3 mph 33.4 mph N/A   Clear
10:15 AM 69.8 °F 37.4 °F 31% 29.58 in 10.0 mi North 28.8 mph 34.5 mph N/A   Clear
10:35 AM 71.6 °F 37.4 °F 29% 29.61 in 10.0 mi North 28.8 mph 33.4 mph N/A   Clear
10:55 AM 71.6 °F 37.4 °F 29% 29.61 in 10.0 mi North 28.8 mph 36.8 mph N/A   Clear
11:15 AM 71.6 °F 37.4 °F 29% 29.64 in 10.0 mi North 25.3 mph 32.2 mph N/A   Clear
11:35 AM 73.4 °F 35.6 °F 25% 29.65 in 10.0 mi North 23.0 mph 27.6 mph N/A   Clear
11:55 AM 73.4 °F 35.6 °F 25% 29.68 in 10.0 mi NNW 20.7 mph 31.1 mph N/A   Clear
12:15 PM 75.2 °F 32.0 °F 21% 29.69 in 10.0 mi NNW 25.3 mph 28.8 mph N/A   Clear
12:35 PM 75.2 °F 32.0 °F 21% 29.70 in 10.0 mi NNW 25.3 mph 31.1 mph N/A   Clear
12:55 PM 73.4 °F 32.0 °F 22% 29.70 in 10.0 mi North 25.3 mph 33.4 mph N/A   Clear
1:15 PM 73.4 °F 33.8 °F 23% 29.71 in 10.0 mi NNW 24.2 mph 33.4 mph N/A   Clear
1:35 PM 73.4 °F 32.0 °F 22% 29.70 in 10.0 mi North 26.5 mph 35.7 mph N/A   Clear
1:55 PM 73.4 °F 30.2 °F 20% 29.70 in 10.0 mi NNW 26.5 mph 33.4 mph N/A   Clear
2:15 PM 73.4 °F 30.2 °F 20% 29.71 in 10.0 mi North 23.0 mph 32.2 mph N/A   Clear
2:35 PM 73.4 °F 28.4 °F 19% 29.71 in 10.0 mi North 23.0 mph 28.8 mph N/A   Clear
2:55 PM 73.4 °F 21.2 °F 14% 29.71 in 10.0 mi NNW 26.5 mph 32.2 mph N/A   Clear
3:15 PM 73.4 °F 24.8 °F 16% 29.71 in 10.0 mi North 15.0 mph 27.6 mph N/A   Clear
3:35 PM 75.2 °F 21.2 °F 13% 29.72 in 10.0 mi NNW 17.3 mph 28.8 mph N/A   Clear
3:55 PM 73.4 °F 19.4 °F 13% 29.72 in 10.0 mi North 23.0 mph 27.6 mph N/A   Clear
4:15 PM 73.4 °F 17.6 °F 12% 29.73 in 10.0 mi NNW 18.4 mph 33.4 mph N/A   Clear
4:35 PM 73.4 °F 19.4 °F 13% 29.74 in 10.0 mi North 23.0 mph 32.2 mph N/A   Clear
4:55 PM 71.6 °F 21.2 °F 15% 29.75 in 10.0 mi NNW 17.3 mph 27.6 mph N/A   Clear
5:15 PM 71.6 °F 21.2 °F 15% 29.76 in 10.0 mi North 18.4 mph 24.2 mph N/A   Clear
5:35 PM 71.6 °F 19.4 °F 14% 29.75 in 10.0 mi NNW 19.6 mph 24.2 mph N/A   Clear
5:55 PM 69.8 °F 21.2 °F 16% 29.76 in 10.0 mi North 17.3 mph 21.9 mph N/A   Clear
6:15 PM 69.8 °F 14.0 °F 12% 29.77 in 10.0 mi NNW 16.1 mph 23.0 mph N/A   Clear
6:35 PM 68.0 °F 17.6 °F 15% 29.78 in 10.0 mi NNW 15.0 mph 18.4 mph N/A   Clear
6:55 PM 64.4 °F 17.6 °F 16% 29.79 in 10.0 mi NNW 10.4 mph - N/A   Clear
7:15 PM 62.6 °F 17.6 °F 18% 29.80 in 10.0 mi North 9.2 mph - N/A   Clear
7:35 PM 62.6 °F 14.0 °F 15% 29.80 in 10.0 mi NNW 10.4 mph - N/A   Clear
7:55 PM 60.8 °F 17.6 °F 19% 29.81 in 10.0 mi NNW 8.1 mph - N/A   Clear
8:15 PM 57.2 °F 17.6 °F 21% 29.82 in 10.0 mi North 8.1 mph - N/A   Clear
8:35 PM 57.2 °F 17.6 °F 21% 29.83 in 10.0 mi North 4.6 mph - N/A   Clear
8:55 PM 55.4 °F 19.4 °F 25% 29.84 in 10.0 mi NNW 6.9 mph - N/A   Clear
9:15 PM 53.6 °F 19.4 °F 26% 29.85 in 10.0 mi NNW 5.8 mph - N/A   Clear
9:35 PM 53.6 °F 19.4 °F 26% 29.86 in 10.0 mi Calm Calm - N/A   Clear
9:55 PM 53.6 °F 19.4 °F 26% 29.87 in 10.0 mi North 3.5 mph - N/A   Clear
10:15 PM 53.6 °F 19.4 °F 26% 29.88 in 10.0 mi Calm Calm - N/A   Clear
10:35 PM 53.6 °F 19.4 °F 26% 29.89 in 10.0 mi Calm Calm - N/A   Clear
10:55 PM 53.6 °F 19.4 °F 26% 29.90 in 10.0 mi Calm Calm - N/A   Clear
11:15 PM 50.0 °F 19.4 °F 30% 29.90 in 10.0 mi Calm Calm - N/A   Clear
11:35 PM 50.0 °F 21.2 °F 32% 29.88 in 10.0 mi North 4.6 mph - N/A   Clear
11:55 PM 50.0 °F 21.2 °F 32% 29.89 in 10.0 mi North 4.6 mph - N/A   Clear